Time,TemperatureF,DewpointF,PressureIn,WindDirection,WindDirectionDegrees,WindSpeedMPH,WindSpeedGustMPH,Humidity,HourlyPrecipIn,Conditions,Clouds,dailyrainin,SoftwareType,DateUTC
2013-07-13 00:01:00,68.0,62.0,30.07,NNE,28,0.0,0.0,80,0.00,,,0.00,,2013-07-13 05:01:00,
2013-07-13 00:11:00,68.0,62.0,30.07,NNE,28,0.0,0.0,80,0.00,,,0.00,,2013-07-13 05:11:00,
2013-07-13 00:22:00,67.0,61.0,30.07,NNE,28,0.0,0.0,81,0.00,,,0.00,,2013-07-13 05:22:00,
2013-07-13 00:32:00,67.0,61.0,30.07,NNE,28,0.0,0.0,81,0.00,,,0.00,,2013-07-13 05:32:00,
2013-07-13 00:42:00,67.0,61.0,30.07,NNE,28,0.0,0.0,81,0.00,,,0.00,,2013-07-13 05:42:00,
2013-07-13 00:52:00,67.0,61.0,30.07,NNE,28,0.0,0.0,81,0.00,,,0.00,,2013-07-13 05:52:00,
2013-07-13 01:01:00,66.0,60.0,30.07,NNE,28,0.0,0.0,81,0.00,,,0.00,,2013-07-13 06:01:00,
2013-07-13 01:11:00,66.0,60.0,30.07,NNE,28,0.0,0.0,82,0.00,,,0.00,,2013-07-13 06:11:00,
2013-07-13 01:22:00,66.0,60.0,30.07,NNE,28,0.0,0.0,82,0.00,,,0.00,,2013-07-13 06:22:00,
2013-07-13 01:32:00,66.0,61.0,30.07,NNE,28,0.0,0.0,83,0.00,,,0.00,,2013-07-13 06:32:00,
2013-07-13 01:43:00,66.0,61.0,30.07,NNE,28,0.0,0.0,83,0.00,,,0.00,,2013-07-13 06:43:00,
2013-07-13 01:52:00,65.0,60.0,30.07,NNE,28,0.0,0.0,84,0.00,,,0.00,,2013-07-13 06:52:00,
2013-07-13 02:02:00,65.0,60.0,30.07,NNE,28,0.0,0.0,85,0.00,,,0.00,,2013-07-13 07:02:00,
2013-07-13 02:11:00,65.0,61.0,30.07,NNE,28,0.0,0.0,86,0.00,,,0.00,,2013-07-13 07:11:00,
2013-07-13 02:22:00,65.0,61.0,30.07,NNE,28,0.0,0.0,86,0.00,,,0.00,,2013-07-13 07:22:00,
2013-07-13 02:33:00,65.0,61.0,30.06,NNE,28,0.0,0.0,86,0.00,,,0.00,,2013-07-13 07:33:00,
2013-07-13 02:44:00,65.0,61.0,30.05,NNE,28,0.0,0.0,87,0.00,,,0.00,,2013-07-13 07:44:00,
2013-07-13 02:53:00,64.0,60.0,30.05,NNE,28,0.0,0.0,87,0.00,,,0.00,,2013-07-13 07:53:00,
2013-07-13 03:02:00,64.0,60.0,30.05,NNE,28,0.0,0.0,87,0.00,,,0.00,,2013-07-13 08:02:00,
2013-07-13 03:11:00,64.0,60.0,30.06,NNE,28,0.0,0.0,87,0.00,,,0.00,,2013-07-13 08:11:00,
2013-07-13 03:22:00,64.0,60.0,30.06,NNE,28,0.0,0.0,88,0.00,,,0.00,,2013-07-13 08:22:00,
2013-07-13 03:33:00,64.0,60.0,30.07,NNE,28,0.0,0.0,88,0.00,,,0.00,,2013-07-13 08:33:00,
2013-07-13 03:43:00,64.0,61.0,30.06,NNE,28,0.0,0.0,89,0.00,,,0.00,,2013-07-13 08:43:00,
2013-07-13 03:52:00,64.0,61.0,30.06,NNE,28,0.0,0.0,89,0.00,,,0.00,,2013-07-13 08:52:00,
2013-07-13 04:02:00,64.0,61.0,30.06,NNE,28,0.0,0.0,89,0.00,,,0.00,,2013-07-13 09:02:00,
2013-07-13 04:11:00,64.0,61.0,30.06,NNE,28,0.0,0.0,89,0.00,,,0.00,,2013-07-13 09:11:00,
2013-07-13 04:22:00,64.0,61.0,30.06,NNE,28,0.0,0.0,89,0.00,,,0.00,,2013-07-13 09:22:00,
2013-07-13 04:33:00,64.0,61.0,30.07,NNE,28,0.0,0.0,89,0.00,,,0.00,,2013-07-13 09:33:00,
2013-07-13 04:43:00,64.0,61.0,30.07,NNE,28,0.0,1.0,89,0.00,,,0.00,,2013-07-13 09:43:00,
2013-07-13 04:53:00,64.0,61.0,30.07,NNE,28,0.0,0.0,89,0.00,,,0.00,,2013-07-13 09:53:00,
2013-07-13 05:01:00,64.0,61.0,30.07,NNE,28,0.0,0.0,89,0.00,,,0.00,,2013-07-13 10:01:00,
2013-07-13 05:11:00,64.0,61.0,30.07,NNE,28,0.0,1.0,89,0.00,,,0.00,,2013-07-13 10:11:00,
2013-07-13 05:22:00,64.0,61.0,30.07,NNE,28,0.0,0.0,89,0.00,,,0.00,,2013-07-13 10:22:00,
2013-07-13 05:32:00,64.0,61.0,30.07,NNE,28,0.0,0.0,89,0.00,,,0.00,,2013-07-13 10:32:00,
2013-07-13 05:43:00,63.0,60.0,30.07,NNE,28,0.0,0.0,89,0.00,,,0.00,,2013-07-13 10:43:00,
2013-07-13 05:52:00,63.0,60.0,30.07,NNE,28,0.0,0.0,89,0.00,,,0.00,,2013-07-13 10:52:00,
2013-07-13 06:02:00,63.0,60.0,30.07,NNE,28,0.0,0.0,89,0.00,,,0.00,,2013-07-13 11:02:00,
2013-07-13 06:11:00,63.0,60.0,30.07,NNE,28,0.0,0.0,90,0.00,,,0.00,,2013-07-13 11:11:00,
2013-07-13 06:22:00,63.0,60.0,30.07,NNE,28,0.0,0.0,90,0.00,,,0.00,,2013-07-13 11:22:00,
2013-07-13 06:32:00,63.0,60.0,30.08,NNE,28,0.0,0.0,91,0.00,,,0.00,,2013-07-13 11:32:00,
2013-07-13 06:42:00,63.0,60.0,30.09,NNE,28,0.0,0.0,91,0.00,,,0.00,,2013-07-13 11:42:00,
2013-07-13 06:52:00,63.0,61.0,30.09,NNE,28,0.0,0.0,92,0.00,,,0.00,,2013-07-13 11:52:00,
2013-07-13 07:02:00,64.0,62.0,30.09,NNE,28,0.0,0.0,92,0.00,,,0.00,,2013-07-13 12:02:00,
2013-07-13 07:12:00,64.0,61.0,30.09,NNE,28,0.0,0.0,91,0.00,,,0.00,,2013-07-13 12:12:00,
2013-07-13 07:22:00,65.0,62.0,30.09,NNE,28,0.0,1.0,90,0.00,,,0.00,,2013-07-13 12:22:00,
2013-07-13 07:32:00,65.0,62.0,30.09,NNE,28,1.0,2.0,89,0.00,,,0.00,,2013-07-13 12:32:00,
2013-07-13 07:43:00,66.0,63.0,30.09,NNE,28,2.0,2.0,89,0.00,,,0.00,,2013-07-13 12:43:00,
2013-07-13 07:52:00,67.0,63.0,30.09,NNE,31,3.0,3.0,87,0.00,,,0.00,,2013-07-13 12:52:00,
2013-07-13 08:01:00,67.0,62.0,30.08,NNE,31,2.0,2.0,85,0.00,,,0.00,,2013-07-13 13:01:00,
2013-07-13 08:12:00,68.0,63.0,30.08,NNE,31,2.0,3.0,85,0.00,,,0.00,,2013-07-13 13:12:00,
2013-07-13 08:22:00,68.0,63.0,30.08,NE,34,2.0,2.0,84,0.00,,,0.00,,2013-07-13 13:22:00,
2013-07-13 08:32:00,69.0,64.0,30.08,NE,34,2.0,3.0,83,0.00,,,0.00,,2013-07-13 13:32:00,
2013-07-13 08:43:00,69.0,64.0,30.09,NE,34,1.0,1.0,84,0.00,,,0.00,,2013-07-13 13:43:00,
2013-07-13 08:53:00,70.0,64.0,30.09,NNE,28,3.0,3.0,82,0.00,,,0.00,,2013-07-13 13:53:00,
2013-07-13 09:02:00,70.0,64.0,30.09,NNE,28,0.0,3.0,80,0.00,,,0.00,,2013-07-13 14:02:00,
2013-07-13 09:11:00,71.0,65.0,30.09,NNE,31,2.0,4.0,80,0.00,,,0.00,,2013-07-13 14:11:00,
2013-07-13 09:22:00,72.0,65.0,30.09,NNE,31,0.0,1.0,80,0.00,,,0.00,,2013-07-13 14:22:00,
2013-07-13 09:32:00,72.0,65.0,30.09,NNE,31,0.0,1.0,80,0.00,,,0.00,,2013-07-13 14:32:00,
2013-07-13 09:43:00,72.0,65.0,30.09,NNE,31,0.0,1.0,80,0.00,,,0.00,,2013-07-13 14:43:00,
2013-07-13 09:53:00,72.0,65.0,30.09,NNE,31,0.0,1.0,80,0.00,,,0.00,,2013-07-13 14:53:00,
2013-07-13 10:02:00,72.0,65.0,30.09,NNE,31,0.0,1.0,80,0.00,,,0.00,,2013-07-13 15:02:00,
2013-07-13 15:43:00,84.0,63.0,30.03,NE,36,0.0,3.0,50,0.00,,,0.00,,2013-07-13 20:43:00,
2013-07-13 15:53:00,83.0,62.0,30.03,NE,46,0.0,2.0,50,0.00,,,0.00,,2013-07-13 20:53:00,
2013-07-13 16:02:00,84.0,62.0,30.03,NE,34,1.0,3.0,48,0.00,,,0.00,,2013-07-13 21:02:00,
2013-07-13 16:12:00,84.0,62.0,30.02,NNE,24,5.0,5.0,47,0.00,,,0.00,,2013-07-13 21:12:00,
2013-07-13 16:22:00,84.0,62.0,30.02,North,9,1.0,3.0,47,0.00,,,0.00,,2013-07-13 21:22:00,
2013-07-13 16:32:00,85.0,62.0,30.03,NNE,32,0.0,1.0,46,0.00,,,0.00,,2013-07-13 21:32:00,
2013-07-13 16:42:00,84.0,63.0,30.02,NNE,32,0.0,1.0,50,0.00,,,0.00,,2013-07-13 21:42:00,
2013-07-13 16:53:00,85.0,61.0,30.02,North,5,2.0,4.0,44,0.00,,,0.00,,2013-07-13 21:53:00,
2013-07-13 17:01:00,83.0,61.0,30.02,NE,44,3.0,3.0,47,0.00,,,0.00,,2013-07-13 22:01:00,
2013-07-13 17:12:00,84.0,62.0,30.02,NE,41,4.0,4.0,48,0.00,,,0.00,,2013-07-13 22:12:00,
2013-07-13 17:22:00,84.0,62.0,30.02,NE,40,0.0,5.0,48,0.00,,,0.00,,2013-07-13 22:22:00,
2013-07-13 17:32:00,82.0,64.0,30.03,ENE,63,3.0,3.0,55,0.00,,,0.00,,2013-07-13 22:32:00,
2013-07-13 17:43:00,81.0,64.0,30.03,SE,124,0.0,1.0,57,0.00,,,0.00,,2013-07-13 22:43:00,
2013-07-13 17:53:00,76.0,67.0,30.03,SE,124,0.0,1.0,73,0.03,,,0.03,,2013-07-13 22:53:00,
2013-07-13 18:11:00,74.0,67.0,30.04,SE,124,0.0,0.0,80,0.03,,,0.03,,2013-07-13 23:11:00,
2013-07-13 18:22:00,74.0,68.0,30.04,SE,124,0.0,0.0,82,0.03,,,0.03,,2013-07-13 23:22:00,
2013-07-13 18:32:00,74.0,68.0,30.04,SE,124,0.0,0.0,82,0.03,,,0.03,,2013-07-13 23:32:00,
2013-07-13 18:42:00,74.0,69.0,30.04,SE,124,0.0,0.0,84,0.03,,,0.03,,2013-07-13 23:42:00,
2013-07-13 18:53:00,75.0,69.0,30.04,SE,124,0.0,0.0,83,0.00,,,0.03,,2013-07-13 23:53:00,
2013-07-13 19:01:00,76.0,70.0,30.04,SE,124,0.0,0.0,82,0.00,,,0.03,,2013-07-14 00:01:00,
2013-07-13 19:11:00,77.0,70.0,30.05,SE,124,0.0,0.0,80,0.00,,,0.03,,2013-07-14 00:11:00,
2013-07-13 19:21:00,77.0,68.0,30.05,SE,124,0.0,0.0,75,0.00,,,0.03,,2013-07-14 00:21:00,
2013-07-13 19:33:00,77.0,69.0,30.05,SE,124,0.0,0.0,76,0.00,,,0.03,,2013-07-14 00:33:00,
2013-07-13 19:42:00,77.0,69.0,30.04,SE,124,0.0,0.0,77,0.00,,,0.03,,2013-07-14 00:42:00,
2013-07-13 19:53:00,77.0,69.0,30.04,SE,124,0.0,0.0,76,0.00,,,0.03,,2013-07-14 00:53:00,
2013-07-13 20:02:00,77.0,68.0,30.04,SE,124,0.0,0.0,75,0.00,,,0.03,,2013-07-14 01:02:00,
2013-07-13 20:11:00,76.0,68.0,30.05,SE,124,0.0,0.0,76,0.00,,,0.03,,2013-07-14 01:11:00,
2013-07-13 20:22:00,76.0,69.0,30.05,SE,124,0.0,0.0,78,0.00,,,0.03,,2013-07-14 01:22:00,
2013-07-13 20:32:00,76.0,69.0,30.05,SE,124,0.0,0.0,79,0.00,,,0.03,,2013-07-14 01:32:00,
2013-07-13 20:43:00,75.0,68.0,30.05,SE,124,0.0,0.0,79,0.00,,,0.03,,2013-07-14 01:43:00,
2013-07-13 20:52:00,75.0,68.0,30.05,SE,124,0.0,0.0,80,0.00,,,0.03,,2013-07-14 01:52:00,
2013-07-13 21:01:00,74.0,67.0,30.05,SE,124,0.0,0.0,80,0.00,,,0.03,,2013-07-14 02:01:00,
2013-07-13 21:11:00,74.0,68.0,30.05,SE,124,0.0,0.0,81,0.00,,,0.03,,2013-07-14 02:11:00,
2013-07-13 21:22:00,73.0,67.0,30.05,SE,124,0.0,0.0,82,0.00,,,0.03,,2013-07-14 02:22:00,
2013-07-13 21:32:00,72.0,66.0,30.06,SE,124,0.0,0.0,81,0.00,,,0.03,,2013-07-14 02:32:00,
2013-07-13 21:43:00,72.0,66.0,30.06,SE,124,0.0,0.0,81,0.00,,,0.03,,2013-07-14 02:43:00,
2013-07-13 21:53:00,72.0,66.0,30.06,SE,124,0.0,0.0,82,0.00,,,0.03,,2013-07-14 02:53:00,
2013-07-13 22:01:00,71.0,65.0,30.06,SE,124,0.0,0.0,82,0.00,,,0.03,,2013-07-14 03:01:00,
2013-07-13 22:11:00,71.0,65.0,30.07,SE,124,0.0,0.0,82,0.00,,,0.03,,2013-07-14 03:11:00,
2013-07-13 22:22:00,71.0,66.0,30.07,SE,124,0.0,0.0,83,0.00,,,0.03,,2013-07-14 03:22:00,
2013-07-13 22:32:00,71.0,66.0,30.07,SE,124,0.0,0.0,83,0.00,,,0.03,,2013-07-14 03:32:00,
2013-07-13 22:43:00,71.0,66.0,30.07,SSW,204,0.0,0.0,84,0.00,,,0.03,,2013-07-14 03:43:00,
2013-07-13 22:53:00,71.0,66.0,30.07,SSW,204,0.0,0.0,84,0.00,,,0.03,,2013-07-14 03:53:00,
2013-07-13 23:02:00,71.0,66.0,30.07,SSW,204,0.0,0.0,84,0.00,,,0.03,,2013-07-14 04:02:00,
2013-07-13 23:11:00,71.0,66.0,30.08,SSW,204,1.0,2.0,84,0.00,,,0.03,,2013-07-14 04:11:00,
2013-07-13 23:22:00,71.0,66.0,30.08,SW,215,0.0,0.0,84,0.00,,,0.03,,2013-07-14 04:22:00,
2013-07-13 23:32:00,71.0,66.0,30.08,SW,215,0.0,0.0,84,0.00,,,0.03,,2013-07-14 04:32:00,
2013-07-13 23:42:00,71.0,66.0,30.08,SW,215,0.0,0.0,84,0.00,,,0.03,,2013-07-14 04:42:00,
2013-07-13 23:53:00,71.0,66.0,30.08,SW,215,0.0,0.0,84,0.00,,,0.03,,2013-07-14 04:53:00,